TimeCST,TemperatureF,Dew PointF,Humidity,Sea Level PressureIn,VisibilityMPH,Wind Direction,Wind SpeedMPH,Gust SpeedMPH,PrecipitationIn,Events,Conditions,WindDirDegrees,DateUTC
12:52 AM,34.0,32.0,92,29.99,7.0,East,5.8,-,N/A,,Overcast,100,2012-12-09 06:52:00
1:08 AM,35.6,33.8,93,29.96,8.0,East,6.9,-,N/A,,Overcast,90,2012-12-09 07:08:00
1:52 AM,36.0,33.1,89,29.96,7.0,East,10.4,-,N/A,,Overcast,100,2012-12-09 07:52:00
2:22 AM,35.6,33.8,93,29.92,7.0,ESE,12.7,-,N/A,,Overcast,110,2012-12-09 08:22:00
2:52 AM,35.1,34.0,96,29.94,7.0,ESE,10.4,-,N/A,,Overcast,110,2012-12-09 08:52:00
3:52 AM,36.0,34.0,93,29.94,7.0,ESE,10.4,-,0.00,Rain,Light Rain,110,2012-12-09 09:52:00
4:52 AM,35.1,34.0,96,29.94,7.0,ENE,8.1,-,0.00,,Overcast,70,2012-12-09 10:52:00
5:08 AM,35.6,33.8,93,29.91,6.0,ENE,8.1,-,N/A,,Overcast,60,2012-12-09 11:08:00
5:52 AM,34.0,34.0,100,29.93,5.0,East,9.2,-,0.00,,Overcast,80,2012-12-09 11:52:00
6:52 AM,34.0,34.0,100,29.91,4.0,ENE,11.5,-,0.00,,Overcast,70,2012-12-09 12:52:00
7:26 AM,33.8,33.8,100,29.87,3.0,ENE,11.5,-,0.00,,Overcast,70,2012-12-09 13:26:00
7:49 AM,33.8,33.8,100,29.86,3.0,ENE,12.7,-,0.01,,Overcast,70,2012-12-09 13:49:00
7:52 AM,34.0,34.0,100,29.89,2.5,ENE,10.4,-,0.01,,Overcast,70,2012-12-09 13:52:00
8:09 AM,33.8,33.8,100,29.87,1.8,ENE,10.4,-,N/A,,Overcast,60,2012-12-09 14:09:00
8:52 AM,34.0,34.0,100,29.89,1.0,ENE,9.2,-,0.01,,Drizzle,70,2012-12-09 14:52:00
9:06 AM,33.8,33.8,100,29.86,1.0,ENE,11.5,-,0.00,,Drizzle,70,2012-12-09 15:06:00
9:52 AM,34.0,34.0,100,29.88,1.0,ENE,9.2,-,0.02,,Overcast,70,2012-12-09 15:52:00
10:52 AM,34.0,34.0,100,29.87,1.5,ENE,6.9,-,0.00,,Overcast,70,2012-12-09 16:52:00
11:26 AM,35.6,35.6,100,29.81,1.0,ENE,8.1,-,0.01,,Overcast,70,2012-12-09 17:26:00
11:52 AM,35.1,35.1,100,29.83,2.0,East,5.8,-,0.01,,Overcast,80,2012-12-09 17:52:00
12:52 PM,35.1,35.1,100,29.81,2.5,East,4.6,-,N/A,,Overcast,90,2012-12-09 18:52:00
1:52 PM,36.0,35.1,97,29.80,2.5,Calm,Calm,-,N/A,,Overcast,0,2012-12-09 19:52:00
2:52 PM,36.0,36.0,100,29.79,2.5,SW,6.9,-,N/A,,Overcast,230,2012-12-09 20:52:00
3:49 PM,37.4,35.6,93,29.79,4.0,West,10.4,-,N/A,,Overcast,260,2012-12-09 21:49:00
3:52 PM,37.0,36.0,96,29.81,5.0,West,12.7,-,N/A,,Overcast,270,2012-12-09 21:52:00
4:52 PM,36.0,35.1,97,29.81,6.0,West,11.5,-,N/A,,Overcast,270,2012-12-09 22:52:00
5:52 PM,32.0,32.0,100,29.82,3.0,West,21.9,29.9,N/A,,Overcast,280,2012-12-09 23:52:00
6:40 PM,30.2,28.4,93,29.80,9.0,WNW,13.8,-,N/A,,Overcast,290,2012-12-10 00:40:00
6:52 PM,30.0,27.0,88,29.83,10.0,WNW,20.7,28.8,N/A,,Overcast,290,2012-12-10 00:52:00
7:05 PM,28.4,24.8,86,29.80,10.0,WNW,20.7,26.5,N/A,,Overcast,290,2012-12-10 01:05:00
7:52 PM,27.0,24.1,89,29.85,10.0,West,20.7,27.6,N/A,,Overcast,280,2012-12-10 01:52:00
8:52 PM,26.1,21.9,84,29.85,9.0,West,19.6,-,N/A,,Overcast,270,2012-12-10 02:52:00
9:39 PM,24.8,21.2,86,29.83,9.0,West,19.6,-,N/A,,Overcast,270,2012-12-10 03:39:00
9:52 PM,24.1,21.0,88,29.86,10.0,West,18.4,-,N/A,,Overcast,260,2012-12-10 03:52:00
10:52 PM,25.0,21.0,85,29.86,10.0,West,18.4,-,N/A,,Overcast,260,2012-12-10 04:52:00
11:52 PM,23.0,19.9,88,29.86,10.0,West,24.2,31.1,N/A,,Overcast,280,2012-12-10 05:52:00